| time (UTC) | temp F | wind direction | speed knots | gust knots | rain 1hr in | rain 24hr in | rain mn in | humidity % | barometer mb |
| 20260510170847 | 92 | 290 | 1.7 | 1.7 | 0.00 | 0.00 | 0.00 | 12 | 1013.0 |
| 20260510170343 | 93 | 255 | 1.7 | 1.7 | 0.00 | 0.00 | 0.00 | 12 | 1012.9 |
| 20260510165838 | 93 | 260 | 0.0 | 0.0 | 0.00 | 0.00 | 0.00 | 12 | 1013.3 |
| 20260510165335 | 93 | 78 | 0.9 | 1.7 | 0.00 | 0.00 | 0.00 | 12 | 1013.1 |
| 20260510164833 | 93 | 108 | 0.0 | 0.0 | 0.00 | 0.00 | 0.00 | 12 | 1013.0 |
| 20260510164330 | 93 | 138 | 0.9 | 0.9 | 0.00 | 0.00 | 0.00 | 12 | 1012.9 |
| 20260510163829 | 91 | 93 | 0.0 | 0.0 | 0.00 | 0.00 | 0.00 | 13 | 1013.2 |
| 20260510163326 | 91 | 114 | 0.9 | 0.9 | 0.00 | 0.00 | 0.00 | 12 | 1013.1 |
| 20260510162820 | 90 | 123 | 0.0 | 0.9 | 0.00 | 0.00 | 0.00 | 13 | 1013.2 |
| 20260510162317 | 90 | 256 | 0.0 | 0.0 | 0.00 | 0.00 | 0.00 | 13 | 1013.0 |
| 20260510161813 | 90 | 76 | 0.9 | 0.9 | 0.00 | 0.00 | 0.00 | 13 | 1013.0 |
| 20260510161309 | 90 | 198 | 0.9 | 0.9 | 0.00 | 0.00 | 0.00 | 13 | 1012.9 |
| 20260510160806 | 89 | 160 | 0.0 | 0.0 | 0.00 | 0.00 | 0.00 | 14 | 1013.2 |
| 20260510160303 | 88 | 82 | 0.9 | 0.9 | 0.00 | 0.00 | 0.00 | 14 | 1012.9 |
| 20260510155757 | 88 | 157 | 0.9 | 0.9 | 0.00 | 0.00 | 0.00 | 14 | 1013.0 |
| 20260510155253 | 88 | 114 | 0.9 | 0.9 | 0.00 | 0.00 | 0.00 | 14 | 1013.1 |
| 20260510154749 | 88 | 150 | 0.9 | 0.9 | 0.00 | 0.00 | 0.00 | 15 | 1013.3 |
| 20260510154246 | 87 | 82 | 0.9 | 0.9 | 0.00 | 0.00 | 0.00 | 16 | 1013.0 |
| 20260510153741 | 85 | 167 | 0.9 | 0.9 | 0.00 | 0.00 | 0.00 | 18 | 1013.1 |
| 20260510153237 | 86 | 167 | 0.9 | 0.9 | 0.00 | 0.00 | 0.00 | 18 | 1013.2 |
| 20260510152734 | 87 | 61 | 0.0 | 0.0 | 0.00 | 0.00 | 0.00 | 18 | 1013.1 |
| 20260510152230 | 86 | 82 | 0.0 | 0.0 | 0.00 | 0.00 | 0.00 | 18 | 1012.9 |
| 20260510151726 | 85 | 82 | 0.0 | 0.0 | 0.00 | 0.00 | 0.00 | 19 | 1013.4 |
| 20260510151225 | 84 | 81 | 0.0 | 0.0 | 0.00 | 0.00 | 0.00 | 19 | 1013.0 |
| 20260510150721 | 83 | 94 | 0.0 | 0.0 | 0.00 | 0.00 | 0.00 | 19 | 1012.8 |
| 20260510150216 | 82 | 97 | 0.0 | 0.0 | 0.00 | 0.00 | 0.00 | 20 | 1013.1 |
| 20260510145713 | 82 | 80 | 0.9 | 0.9 | 0.00 | 0.00 | 0.00 | 20 | 1012.9 |
| 20260510145209 | 81 | 81 | 0.0 | 0.0 | 0.00 | 0.00 | 0.00 | 21 | 1013.1 |
| 20260510144705 | 79 | 70 | 0.0 | 0.0 | 0.00 | 0.00 | 0.00 | 21 | 1013.0 |
| 20260510144202 | 79 | 152 | 0.0 | 0.9 | 0.00 | 0.00 | 0.00 | 22 | 1012.9 |
| 20260510143657 | 79 | 150 | 0.9 | 0.9 | 0.00 | 0.00 | 0.00 | 22 | 1013.1 |
| 20260510143154 | 78 | 107 | 0.9 | 0.9 | 0.00 | 0.00 | 0.00 | 23 | 1013.0 |
| 20260510142650 | 78 | 99 | 0.9 | 0.9 | 0.00 | 0.00 | 0.00 | 23 | 1012.8 |
| 20260510142147 | 77 | 101 | 0.9 | 0.9 | 0.00 | 0.00 | 0.00 | 24 | 1012.9 |
| 20260510141644 | 76 | 117 | 0.9 | 0.9 | 0.00 | 0.00 | 0.00 | 25 | 1013.0 |
| 20260510141142 | 75 | 84 | 0.0 | 0.0 | 0.00 | 0.00 | 0.00 | 27 | 1013.0 |
| 20260510140638 | 74 | 79 | 0.0 | 0.0 | 0.00 | 0.00 | 0.00 | 28 | 1012.6 |
| 20260510140137 | 74 | 79 | 0.0 | 0.0 | 0.00 | 0.00 | 0.00 | 29 | 1012.5 |
| 20260510135633 | 74 | 78 | 0.0 | 0.0 | 0.00 | 0.00 | 0.00 | 28 | 1012.6 |
| 20260510135129 | 74 | 84 | 0.0 | 0.0 | 0.00 | 0.00 | 0.00 | 28 | 1012.9 |
| 20260510134626 | 73 | 84 | 0.0 | 0.0 | 0.00 | 0.00 | 0.00 | 29 | 1012.8 |
| 20260510134123 | 72 | 84 | 0.0 | 0.0 | 0.00 | 0.00 | 0.00 | 30 | 1012.6 |
| 20260510133620 | 71 | 82 | 0.0 | 0.0 | 0.00 | 0.00 | 0.00 | 31 | 1012.7 |
| 20260510133115 | 70 | 83 | 0.0 | 0.0 | 0.00 | 0.00 | 0.00 | 31 | 1012.4 |
| 20260510132612 | 69 | 83 | 1.7 | 1.7 | 0.00 | 0.00 | 0.00 | 31 | 1012.7 |
| 20260510132109 | 68 | 107 | 0.0 | 0.0 | 0.00 | 0.00 | 0.00 | 31 | 1012.4 |
| 20260510131607 | 67 | 108 | 0.0 | 0.0 | 0.00 | 0.00 | 0.00 | 33 | 1012.6 |
| 20260510131104 | 66 | 108 | 0.0 | 0.0 | 0.00 | 0.00 | 0.00 | 34 | 1012.5 |
| 20260510130600 | 65 | 108 | 0.0 | 0.0 | 0.00 | 0.00 | 0.00 | 34 | 1012.2 |
| 20260510130058 | 64 | 107 | 0.0 | 0.0 | 0.00 | 0.00 | 0.00 | 36 | 1012.2 |
| 20260510125554 | 64 | 109 | 0.0 | 0.0 | 0.00 | 0.00 | 0.00 | 36 | 1012.0 |
| 20260510125050 | 63 | 109 | 0.0 | 0.0 | 0.00 | 0.00 | 0.00 | 35 | 1012.2 |
| 20260510124547 | 63 | 109 | 0.0 | 0.0 | 0.00 | 0.00 | 0.00 | 35 | 1011.9 |
| 20260510124044 | 63 | 105 | 0.9 | 1.7 | 0.00 | 0.00 | 0.00 | 35 | 1012.1 |
| 20260510123539 | 63 | 88 | 0.0 | 0.0 | 0.00 | 0.00 | 0.00 | 35 | 1012.1 |
| 20260510123035 | 63 | 86 | 0.0 | 0.0 | 0.00 | 0.00 | 0.00 | 35 | 1012.0 |
| 20260510122531 | 63 | 83 | 0.0 | 0.0 | 0.00 | 0.00 | 0.00 | 36 | 1011.7 |
| 20260510122027 | 62 | 82 | 0.9 | 0.9 | 0.00 | 0.00 | 0.00 | 36 | 1011.9 |
| 20260510121525 | 63 | 82 | 0.0 | 0.0 | 0.00 | 0.00 | 0.00 | 35 | 1011.8 |
| 20260510121022 | 63 | 82 | 0.0 | 0.9 | 0.00 | 0.00 | 0.00 | 35 | 1011.6 |
| 20260510120519 | 62 | 82 | 0.0 | 0.9 | 0.00 | 0.00 | 0.00 | 37 | 1011.8 |
| 20260510120015 | 63 | 80 | 0.9 | 0.9 | 0.00 | 0.00 | 0.00 | 37 | 1011.7 |
| 20260510115512 | 63 | 86 | 0.9 | 1.7 | 0.00 | 0.00 | 0.00 | 38 | 1011.6 |
| 20260510115008 | 63 | 87 | 0.0 | 0.0 | 0.00 | 0.00 | 0.00 | 37 | 1011.3 |
| 20260510114505 | 63 | 87 | 0.0 | 0.0 | 0.00 | 0.00 | 0.00 | 36 | 1011.5 |
| 20260510114001 | 63 | 87 | 0.0 | 0.0 | 0.00 | 0.00 | 0.00 | 37 | 1011.4 |
| 20260510113456 | 64 | 87 | 0.0 | 0.0 | 0.00 | 0.00 | 0.00 | 37 | 1011.4 |
| 20260510112954 | 64 | 88 | 0.0 | 0.0 | 0.00 | 0.00 | 0.00 | 36 | 1011.5 |
| 20260510112451 | 64 | 88 | 0.0 | 0.0 | 0.00 | 0.00 | 0.00 | 36 | 1011.4 |
| 20260510111947 | 63 | 88 | 0.0 | 0.0 | 0.00 | 0.00 | 0.00 | 38 | 1011.4 |
| 20260510111443 | 63 | 88 | 0.0 | 0.0 | 0.00 | 0.00 | 0.00 | 37 | 1011.2 |
| 20260510110940 | 64 | 87 | 0.0 | 0.0 | 0.00 | 0.00 | 0.00 | 37 | 1011.2 |
| 20260510110436 | 64 | 87 | 0.0 | 0.0 | 0.00 | 0.00 | 0.00 | 36 | 1011.2 |
| 20260510105932 | 64 | 87 | 0.0 | 0.0 | 0.00 | 0.00 | 0.00 | 35 | 1011.3 |
| 20260510105427 | 64 | 86 | 0.0 | 0.0 | 0.00 | 0.00 | 0.00 | 36 | 1011.4 |
| 20260510104922 | 64 | 85 | 0.0 | 0.0 | 0.00 | 0.00 | 0.00 | 35 | 1011.2 |
| 20260510104420 | 65 | 85 | 0.0 | 0.9 | 0.00 | 0.00 | 0.00 | 35 | 1011.3 |
| 20260510103916 | 64 | 85 | 0.0 | 0.0 | 0.00 | 0.00 | 0.00 | 35 | 1011.4 |
| 20260510103414 | 64 | 85 | 0.9 | 0.9 | 0.00 | 0.00 | 0.00 | 35 | 1011.3 |
| 20260510102908 | 64 | 85 | 0.0 | 0.0 | 0.00 | 0.00 | 0.00 | 36 | 1011.5 |
| 20260510102404 | 64 | 85 | 0.0 | 0.0 | 0.00 | 0.00 | 0.00 | 36 | 1011.5 |
| 20260510101902 | 65 | 85 | 0.0 | 0.0 | 0.00 | 0.00 | 0.00 | 34 | 1011.2 |
| 20260510101400 | 65 | 85 | 0.0 | 0.0 | 0.00 | 0.00 | 0.00 | 34 | 1011.3 |
| 20260510100856 | 66 | 85 | 0.0 | 0.0 | 0.00 | 0.00 | 0.00 | 33 | 1011.2 |
| 20260510100354 | 66 | 85 | 0.0 | 0.0 | 0.00 | 0.00 | 0.00 | 32 | 1011.2 |
| 20260510095850 | 66 | 85 | 0.0 | 0.0 | 0.00 | 0.00 | 0.00 | 32 | 1011.2 |
| 20260510095344 | 66 | 85 | 0.0 | 0.0 | 0.00 | 0.00 | 0.00 | 32 | 1010.9 |
| 20260510094844 | 67 | 84 | 0.0 | 0.0 | 0.00 | 0.00 | 0.00 | 31 | 1011.1 |
| 20260510094340 | 67 | 84 | 0.0 | 0.0 | 0.00 | 0.00 | 0.00 | 31 | 1010.9 |
| 20260510093836 | 67 | 83 | 0.0 | 0.0 | 0.00 | 0.00 | 0.00 | 31 | 1011.0 |
| 20260510093332 | 68 | 83 | 0.0 | 0.0 | 0.00 | 0.00 | 0.00 | 30 | 1011.1 |
| 20260510092828 | 67 | 91 | 0.0 | 0.0 | 0.00 | 0.00 | 0.00 | 30 | 1010.9 |
| 20260510092324 | 67 | 90 | 0.0 | 0.0 | 0.00 | 0.00 | 0.00 | 30 | 1011.0 |
| 20260510091820 | 67 | 68 | 0.0 | 0.0 | 0.00 | 0.00 | 0.00 | 31 | 1011.0 |
| 20260510091318 | 68 | 65 | 0.0 | 0.0 | 0.00 | 0.00 | 0.00 | 31 | 1011.0 |
| 20260510090814 | 68 | 65 | 0.0 | 0.0 | 0.00 | 0.00 | 0.00 | 30 | 1010.7 |
| 20260510090311 | 68 | 65 | 0.0 | 0.0 | 0.00 | 0.00 | 0.00 | 29 | 1010.7 |
| 20260510085807 | 69 | 64 | 0.0 | 0.0 | 0.00 | 0.00 | 0.00 | 29 | 1011.2 |
| 20260510085301 | 69 | 87 | 0.9 | 0.9 | 0.00 | 0.00 | 0.00 | 30 | 1010.9 |
| 20260510084757 | 70 | 94 | 0.0 | 0.0 | 0.00 | 0.00 | 0.00 | 28 | 1011.1 |
| 20260510084254 | 70 | 96 | 0.0 | 0.0 | 0.00 | 0.00 | 0.00 | 28 | 1011.0 |
| 20260510083751 | 70 | 96 | 0.0 | 0.0 | 0.00 | 0.00 | 0.00 | 27 | 1010.6 |
| 20260510083248 | 71 | 96 | 0.0 | 0.0 | 0.00 | 0.00 | 0.00 | 27 | 1011.1 |
| 20260510082743 | 71 | 96 | 0.0 | 0.0 | 0.00 | 0.00 | 0.00 | 25 | 1010.9 |
| 20260510082240 | 72 | 81 | 0.9 | 0.9 | 0.00 | 0.00 | 0.00 | 25 | 1010.7 |
| 20260510081739 | 72 | 70 | 0.9 | 0.9 | 0.00 | 0.00 | 0.00 | 25 | 1010.6 |
| 20260510081236 | 73 | 70 | 0.9 | 0.0 | 0.00 | 0.00 | 0.00 | 24 | 1010.7 |
| 20260510080731 | 73 | 86 | 1.7 | 1.7 | 0.00 | 0.00 | 0.00 | 23 | 1011.1 |
| 20260510080227 | 72 | 140 | 0.0 | 0.0 | 0.00 | 0.00 | 0.00 | 24 | 1011.0 |
| 20260510075723 | 72 | 141 | 0.0 | 0.0 | 0.00 | 0.00 | 0.00 | 25 | 1010.9 |
| 20260510075221 | 72 | 143 | 0.9 | 0.0 | 0.00 | 0.00 | 0.00 | 25 | 1011.1 |
| 20260510074718 | 72 | 56 | 0.0 | 0.0 | 0.00 | 0.00 | 0.00 | 25 | 1010.7 |
| 20260510074214 | 73 | 56 | 0.0 | 0.0 | 0.00 | 0.00 | 0.00 | 24 | 1010.7 |
| 20260510073711 | 73 | 54 | 0.0 | 0.0 | 0.00 | 0.00 | 0.00 | 24 | 1011.2 |
| 20260510073207 | 73 | 48 | 0.0 | 0.0 | 0.00 | 0.00 | 0.00 | 22 | 1011.0 |
| 20260510072703 | 74 | 293 | 0.0 | 0.0 | 0.00 | 0.00 | 0.00 | 23 | 1011.1 |
| 20260510072159 | 73 | 293 | 0.9 | 0.9 | 0.00 | 0.00 | 0.00 | 25 | 1011.1 |
| 20260510071656 | 73 | 293 | 0.0 | 0.0 | 0.00 | 0.00 | 0.00 | 24 | 1011.1 |
| 20260510071153 | 74 | 293 | 0.0 | 0.0 | 0.00 | 0.00 | 0.00 | 25 | 1011.0 |
| 20260510070650 | 74 | 293 | 0.0 | 0.0 | 0.00 | 0.00 | 0.00 | 24 | 1011.1 |
| 20260510070148 | 74 | 293 | 0.0 | 0.0 | 0.00 | 0.00 | 0.00 | 23 | 1011.0 |
| 20260510065643 | 75 | 293 | 0.0 | 0.0 | 0.00 | 0.00 | 0.00 | 21 | 1011.0 |
| 20260510065139 | 74 | 293 | 0.0 | 0.0 | 0.00 | 0.00 | 0.00 | 21 | 1010.7 |
| 20260510064636 | 74 | 293 | 0.0 | 0.0 | 0.00 | 0.00 | 0.00 | 23 | 1011.1 |
| 20260510064133 | 75 | 293 | 0.0 | 0.0 | 0.00 | 0.00 | 0.00 | 22 | 1010.9 |
| 20260510063630 | 76 | 293 | 0.0 | 0.0 | 0.00 | 0.00 | 0.00 | 21 | 1010.7 |
| 20260510063127 | 77 | 293 | 0.0 | 0.0 | 0.00 | 0.00 | 0.00 | 20 | 1010.7 |
| 20260510062622 | 78 | 293 | 0.0 | 0.0 | 0.00 | 0.00 | 0.00 | 20 | 1010.5 |
| 20260510062118 | 79 | 293 | 0.0 | 0.0 | 0.00 | 0.00 | 0.00 | 18 | 1010.6 |
| 20260510061614 | 79 | 293 | 0.0 | 0.0 | 0.00 | 0.00 | 0.00 | 17 | 1010.3 |
| 20260510061112 | 79 | 281 | 1.7 | 1.7 | 0.00 | 0.00 | 0.00 | 17 | 1010.4 |
| 20260510060608 | 78 | 319 | 0.0 | 0.0 | 0.00 | 0.00 | 0.00 | 18 | 1010.2 |
| 20260510060105 | 76 | 276 | 0.9 | 0.9 | 0.00 | 0.00 | 0.00 | 19 | 1010.4 |
| 20260510055600 | 74 | 260 | 1.7 | 1.7 | 0.00 | 0.00 | 0.00 | 22 | 1010.1 |
| 20260510055059 | 73 | 6 | 0.0 | 0.0 | 0.00 | 0.00 | 0.00 | 26 | 1010.1 |
| 20260510054554 | 73 | 6 | 0.0 | 0.0 | 0.00 | 0.00 | 0.00 | 25 | 1010.1 |
| 20260510054050 | 73 | 6 | 0.0 | 0.0 | 0.00 | 0.00 | 0.00 | 27 | 1010.0 |
| 20260510053549 | 73 | 6 | 0.0 | 0.0 | 0.00 | 0.00 | 0.00 | 26 | 1009.6 |
| 20260510053047 | 74 | 6 | 0.0 | 0.0 | 0.00 | 0.00 | 0.00 | 26 | 1009.7 |
| 20260510052542 | 75 | 6 | 0.0 | 0.0 | 0.00 | 0.00 | 0.00 | 25 | 1009.6 |
| 20260510052039 | 75 | 6 | 0.0 | 0.0 | 0.00 | 0.00 | 0.00 | 25 | 1009.7 |
| 20260510051534 | 75 | 6 | 0.0 | 0.0 | 0.00 | 0.00 | 0.00 | 23 | 1009.6 |
| 20260510051031 | 76 | 6 | 0.0 | 0.0 | 0.00 | 0.00 | 0.00 | 22 | 1009.9 |
| 20260510050528 | 76 | 6 | 0.0 | 0.0 | 0.00 | 0.00 | 0.00 | 22 | 1009.8 |
| 20260510050026 | 77 | 6 | 0.0 | 0.0 | 0.00 | 0.00 | 0.00 | 22 | 1009.5 |
| 20260510045523 | 77 | 6 | 0.0 | 0.0 | 0.00 | 0.00 | 0.00 | 22 | 1009.3 |
| 20260510045018 | 78 | 6 | 0.0 | 0.0 | 0.00 | 0.00 | 0.00 | 21 | 1009.3 |
| 20260510044515 | 77 | 6 | 0.0 | 0.0 | 0.00 | 0.00 | 0.00 | 20 | 1009.5 |
| 20260510044013 | 77 | 6 | 0.0 | 0.0 | 0.00 | 0.00 | 0.00 | 22 | 1009.3 |
| 20260510043508 | 77 | 6 | 0.0 | 0.0 | 0.00 | 0.00 | 0.00 | 23 | 1009.2 |
| 20260510043003 | 78 | 6 | 0.0 | 0.0 | 0.00 | 0.00 | 0.00 | 22 | 1009.3 |
| 20260510042457 | 78 | 6 | 0.0 | 0.0 | 0.00 | 0.00 | 0.00 | 22 | 1009.1 |
| 20260510041953 | 78 | 6 | 0.0 | 0.0 | 0.00 | 0.00 | 0.00 | 22 | 1009.3 |
| 20260510041450 | 78 | 6 | 0.0 | 0.0 | 0.00 | 0.00 | 0.00 | 22 | 1009.1 |
| 20260510040948 | 78 | 6 | 0.0 | 0.0 | 0.00 | 0.00 | 0.00 | 22 | 1009.0 |
| 20260510040444 | 78 | 6 | 0.9 | 0.9 | 0.00 | 0.00 | 0.00 | 20 | 1009.0 |
| 20260510035940 | 78 | 6 | 0.0 | 0.0 | 0.00 | 0.00 | 0.00 | 21 | 1008.9 |
| 20260510035437 | 79 | 6 | 0.0 | 0.0 | 0.00 | 0.00 | 0.00 | 20 | 1009.0 |
| 20260510034936 | 79 | 6 | 0.0 | 0.0 | 0.00 | 0.00 | 0.00 | 20 | 1008.7 |
| 20260510034436 | 79 | 6 | 0.0 | 0.0 | 0.00 | 0.00 | 0.00 | 20 | 1008.5 |
| 20260510033931 | 80 | 6 | 0.0 | 0.0 | 0.00 | 0.00 | 0.00 | 20 | 1008.6 |
| 20260510033427 | 80 | 6 | 0.0 | 0.0 | 0.00 | 0.00 | 0.00 | 19 | 1008.4 |
| 20260510032925 | 80 | 5 | 0.9 | 0.9 | 0.00 | 0.00 | 0.00 | 19 | 1008.4 |
| 20260510032421 | 80 | 6 | 0.0 | 0.0 | 0.00 | 0.00 | 0.00 | 19 | 1008.4 |
| 20260510031917 | 81 | 5 | 0.0 | 0.0 | 0.00 | 0.00 | 0.00 | 19 | 1008.5 |
| 20260510031412 | 81 | 5 | 0.0 | 0.0 | 0.00 | 0.00 | 0.00 | 18 | 1008.4 |
| 20260510030907 | 81 | 5 | 0.0 | 0.0 | 0.00 | 0.00 | 0.00 | 17 | 1008.1 |
| 20260510030403 | 82 | 5 | 0.0 | 0.0 | 0.00 | 0.00 | 0.00 | 16 | 1007.9 |
| 20260510025901 | 82 | 5 | 0.0 | 0.0 | 0.00 | 0.00 | 0.00 | 16 | 1008.1 |
| 20260510025359 | 83 | 5 | 0.0 | 0.0 | 0.00 | 0.00 | 0.00 | 16 | 1007.9 |
| 20260510024855 | 84 | 5 | 0.0 | 0.0 | 0.00 | 0.00 | 0.00 | 15 | 1008.1 |
| 20260510024352 | 84 | 5 | 0.0 | 0.0 | 0.00 | 0.00 | 0.00 | 15 | 1007.9 |
| 20260510023848 | 85 | 5 | 0.0 | 0.0 | 0.00 | 0.00 | 0.00 | 14 | 1008.1 |
| 20260510023344 | 86 | 5 | 0.0 | 0.0 | 0.00 | 0.00 | 0.00 | 13 | 1007.7 |
| 20260510022842 | 87 | 5 | 0.0 | 0.0 | 0.00 | 0.00 | 0.00 | 13 | 1007.9 |
| 20260510022341 | 88 | 3 | 0.0 | 0.0 | 0.00 | 0.00 | 0.00 | 13 | 1007.6 |
| 20260510021840 | 89 | 3 | 0.0 | 0.0 | 0.00 | 0.00 | 0.00 | 12 | 1007.7 |
| 20260510021339 | 90 | 3 | 0.0 | 0.0 | 0.00 | 0.00 | 0.00 | 11 | 1007.5 |
| 20260510020834 | 91 | 339 | 0.9 | 0.9 | 0.00 | 0.00 | 0.00 | 11 | 1007.6 |
| 20260510020329 | 91 | 7 | 0.9 | 0.9 | 0.00 | 0.00 | 0.00 | 11 | 1007.6 |
| 20260510015825 | 92 | 304 | 1.7 | 2.6 | 0.00 | 0.00 | 0.00 | 11 | 1007.5 |
| 20260510015321 | 93 | 7 | 1.7 | 1.7 | 0.00 | 0.00 | 0.00 | 10 | 1007.6 |
| 20260510014816 | 94 | 8 | 0.0 | 0.0 | 0.00 | 0.00 | 0.00 | 10 | 1007.4 |
| 20260510014314 | 94 | 306 | 2.6 | 2.6 | 0.00 | 0.00 | 0.00 | 10 | 1007.4 |
| 20260510013809 | 95 | 355 | 1.7 | 1.7 | 0.00 | 0.00 | 0.00 | 10 | 1007.3 |
| 20260510013305 | 95 | 354 | 1.7 | 1.7 | 0.00 | 0.00 | 0.00 | 10 | 1007.6 |
| 20260510012800 | 95 | 346 | 1.7 | 1.7 | 0.00 | 0.00 | 0.00 | 10 | 1007.6 |
| 20260510012255 | 96 | 8 | 1.7 | 2.6 | 0.00 | 0.00 | 0.00 | 10 | 1007.3 |
| 20260510011755 | 96 | 292 | 1.7 | 1.7 | 0.00 | 0.00 | 0.00 | 10 | 1007.3 |
| 20260510011251 | 96 | 321 | 0.9 | 0.9 | 0.00 | 0.00 | 0.00 | 10 | 1007.4 |
| 20260510010748 | 96 | 4 | 1.7 | 1.7 | 0.00 | 0.00 | 0.00 | 10 | 1007.2 |
| 20260510010244 | 96 | 351 | 1.7 | 1.7 | 0.00 | 0.00 | 0.00 | 10 | 1007.4 |
| 20260510005742 | 97 | 313 | 4.3 | 6.1 | 0.00 | 0.00 | 0.00 | 10 | 1007.3 |
| 20260510005237 | 98 | 337 | 1.7 | 1.7 | 0.00 | 0.00 | 0.00 | 10 | 1007.5 |
| 20260510004736 | 98 | 328 | 0.9 | 1.7 | 0.00 | 0.00 | 0.00 | 10 | 1007.2 |
| 20260510004233 | 98 | 33 | 2.6 | 2.6 | 0.00 | 0.00 | 0.00 | 10 | 1007.3 |
| 20260510003730 | 98 | 330 | 1.7 | 2.6 | 0.00 | 0.00 | 0.00 | 10 | 1007.4 |
| 20260510003227 | 98 | 294 | 0.9 | 0.9 | 0.00 | 0.00 | 0.00 | 10 | 1007.4 |
| 20260510002725 | 98 | 328 | 2.6 | 4.3 | 0.00 | 0.00 | 0.00 | 10 | 1007.7 |
| 20260510002223 | 97 | 327 | 2.6 | 4.3 | 0.00 | 0.00 | 0.00 | 10 | 1007.3 |
| 20260510001720 | 98 | 303 | 2.6 | 2.6 | 0.00 | 0.00 | 0.00 | 10 | 1007.5 |
| 20260510001218 | 99 | 287 | 0.9 | 0.9 | 0.00 | 0.00 | 0.00 | 10 | 1007.5 |
| 20260510000714 | 98 | 293 | 0.9 | 2.6 | 0.00 | 0.00 | 0.00 | 10 | 1007.5 |
| 20260510000211 | 98 | 288 | 0.9 | 0.9 | 0.00 | 0.00 | 0.00 | 10 | 1007.6 |
| 20260509235708 | 98 | 357 | 5.2 | 7.0 | 0.00 | 0.00 | 0.00 | 10 | 1007.6 |
| 20260509235204 | 99 | 307 | 0.9 | 1.7 | 0.00 | 0.00 | 0.00 | 10 | 1007.5 |
| 20260509234701 | 99 | 324 | 3.5 | 5.2 | 0.00 | 0.00 | 0.00 | 10 | 1007.8 |
| 20260509234157 | 99 | 270 | 4.3 | 6.1 | 0.00 | 0.00 | 0.00 | 10 | 1007.8 |
| 20260509233655 | 98 | 246 | 1.7 | 1.7 | 0.00 | 0.00 | 0.00 | 10 | 1007.6 |
| 20260509233153 | 99 | 312 | 7.0 | 7.8 | 0.00 | 0.00 | 0.00 | 10 | 1007.7 |
| 20260509232649 | 99 | 299 | 0.9 | 0.9 | 0.00 | 0.00 | 0.00 | 10 | 1007.6 |
| 20260509232146 | 98 | 290 | 2.6 | 6.1 | 0.00 | 0.00 | 0.00 | 10 | 1007.7 |
| 20260509231643 | 98 | 21 | 1.7 | 2.6 | 0.00 | 0.00 | 0.00 | 10 | 1007.8 |
| 20260509231140 | 99 | 245 | 2.6 | 2.6 | 0.00 | 0.00 | 0.00 | 10 | 1007.9 |
| 20260509230637 | 99 | 313 | 3.5 | 4.3 | 0.00 | 0.00 | 0.00 | 10 | 1007.8 |
| 20260509230134 | 99 | 297 | 4.3 | 5.2 | 0.00 | 0.00 | 0.00 | 10 | 1008.2 |
| 20260509225630 | 100 | 333 | 0.9 | 0.9 | 0.00 | 0.00 | 0.00 | 10 | 1008.3 |
| 20260509225125 | 99 | 306 | 1.7 | 1.7 | 0.00 | 0.00 | 0.00 | 10 | 1008.2 |
| 20260509224620 | 99 | 296 | 1.7 | 1.7 | 0.00 | 0.00 | 0.00 | 10 | 1008.2 |
| 20260509224118 | 99 | 296 | 2.6 | 4.3 | 0.00 | 0.00 | 0.00 | 10 | 1008.4 |
| 20260509223615 | 100 | 291 | 4.3 | 5.2 | 0.00 | 0.00 | 0.00 | 10 | 1008.4 |
| 20260509223113 | 99 | 294 | 1.7 | 1.7 | 0.00 | 0.00 | 0.00 | 10 | 1008.2 |
| 20260509222608 | 100 | 280 | 2.6 | 4.3 | 0.00 | 0.00 | 0.00 | 10 | 1008.5 |
| 20260509222104 | 99 | 306 | 1.7 | 1.7 | 0.00 | 0.00 | 0.00 | 10 | 1008.7 |
| 20260509221600 | 99 | 10 | 3.5 | 4.3 | 0.00 | 0.00 | 0.00 | 10 | 1008.6 |
| 20260509221056 | 100 | 20 | 4.3 | 5.2 | 0.00 | 0.00 | 0.00 | 10 | 1008.7 |
| 20260509220552 | 100 | 299 | 3.5 | 5.2 | 0.00 | 0.00 | 0.00 | 10 | 1008.5 |
| 20260509220049 | 100 | 304 | 3.5 | 4.3 | 0.00 | 0.00 | 0.00 | 10 | 1008.6 |
| 20260509215544 | 100 | 294 | 4.3 | 6.1 | 0.00 | 0.00 | 0.00 | 10 | 1008.7 |
| 20260509215042 | 100 | 33 | 0.0 | 0.0 | 0.00 | 0.00 | 0.00 | 10 | 1009.0 |
| 20260509214539 | 99 | 231 | 0.9 | 0.9 | 0.00 | 0.00 | 0.00 | 10 | 1008.9 |
| 20260509214036 | 99 | 286 | 0.9 | 0.9 | 0.00 | 0.00 | 0.00 | 10 | 1009.2 |
| 20260509213532 | 98 | 307 | 4.3 | 5.2 | 0.00 | 0.00 | 0.00 | 10 | 1009.2 |
| 20260509213029 | 98 | 295 | 3.5 | 5.2 | 0.00 | 0.00 | 0.00 | 10 | 1009.2 |
| 20260509212526 | 99 | 260 | 2.6 | 2.6 | 0.00 | 0.00 | 0.00 | 10 | 1009.2 |
| 20260509212023 | 99 | 308 | 1.7 | 2.6 | 0.00 | 0.00 | 0.00 | 10 | 1009.2 |
| 20260509211518 | 98 | 333 | 2.6 | 4.3 | 0.00 | 0.00 | 0.00 | 10 | 1009.6 |
| 20260509211016 | 99 | 307 | 2.6 | 2.6 | 0.00 | 0.00 | 0.00 | 10 | 1009.6 |
| 20260509210512 | 99 | 253 | 2.6 | 4.3 | 0.00 | 0.00 | 0.00 | 10 | 1009.6 |
| 20260509210008 | 98 | 305 | 1.7 | 2.6 | 0.00 | 0.00 | 0.00 | 10 | 1009.7 |
| 20260509205503 | 98 | 312 | 2.6 | 1.7 | 0.00 | 0.00 | 0.00 | 10 | 1009.9 |
| 20260509204958 | 97 | 13 | 1.7 | 1.7 | 0.00 | 0.00 | 0.00 | 10 | 1009.8 |
| 20260509204455 | 97 | 297 | 1.7 | 2.6 | 0.00 | 0.00 | 0.00 | 10 | 1009.9 |
| 20260509203951 | 98 | 325 | 5.2 | 7.0 | 0.00 | 0.00 | 0.00 | 10 | 1010.1 |
| 20260509203447 | 98 | 256 | 3.5 | 4.3 | 0.00 | 0.00 | 0.00 | 10 | 1010.0 |
| 20260509202945 | 98 | 283 | 1.7 | 2.6 | 0.00 | 0.00 | 0.00 | 11 | 1010.1 |
| 20260509202441 | 98 | 308 | 2.6 | 2.6 | 0.00 | 0.00 | 0.00 | 10 | 1010.0 |
| 20260509201936 | 97 | 303 | 3.5 | 4.3 | 0.00 | 0.00 | 0.00 | 11 | 1010.0 |
| 20260509201431 | 97 | 312 | 3.5 | 8.7 | 0.00 | 0.00 | 0.00 | 11 | 1010.2 |
| 20260509200929 | 97 | 287 | 5.2 | 7.0 | 0.00 | 0.00 | 0.00 | 10 | 1010.3 |
| 20260509200428 | 97 | 10 | 4.3 | 7.0 | 0.00 | 0.00 | 0.00 | 10 | 1010.6 |
| 20260509195926 | 97 | 326 | 4.3 | 6.1 | 0.00 | 0.00 | 0.00 | 11 | 1010.5 |
| 20260509195421 | 97 | 355 | 3.5 | 6.1 | 0.00 | 0.00 | 0.00 | 11 | 1010.6 |
| 20260509194920 | 97 | 313 | 1.7 | 1.7 | 0.00 | 0.00 | 0.00 | 11 | 1010.7 |
| 20260509194417 | 96 | 291 | 4.3 | 6.1 | 0.00 | 0.00 | 0.00 | 11 | 1010.7 |
| 20260509193914 | 97 | 290 | 4.3 | 5.2 | 0.00 | 0.00 | 0.00 | 11 | 1010.6 |
| 20260509193413 | 97 | 322 | 2.6 | 2.6 | 0.00 | 0.00 | 0.00 | 11 | 1010.9 |
| 20260509192910 | 96 | 298 | 2.6 | 1.7 | 0.00 | 0.00 | 0.00 | 12 | 1010.7 |
| 20260509192406 | 96 | 325 | 4.3 | 5.2 | 0.00 | 0.00 | 0.00 | 12 | 1010.9 |
| 20260509191901 | 96 | 259 | 3.5 | 4.3 | 0.00 | 0.00 | 0.00 | 12 | 1011.1 |
| 20260509191357 | 95 | 326 | 3.5 | 5.2 | 0.00 | 0.00 | 0.00 | 12 | 1010.9 |
| 20260509190853 | 95 | 259 | 2.6 | 2.6 | 0.00 | 0.00 | 0.00 | 12 | 1011.1 |
| 20260509190350 | 95 | 286 | 3.5 | 5.2 | 0.00 | 0.00 | 0.00 | 12 | 1011.3 |
| 20260509185848 | 96 | 307 | 5.2 | 7.0 | 0.00 | 0.00 | 0.00 | 11 | 1011.2 |
| 20260509185344 | 96 | 305 | 2.6 | 2.6 | 0.00 | 0.00 | 0.00 | 11 | 1011.3 |
| 20260509184842 | 95 | 14 | 1.7 | 1.7 | 0.00 | 0.00 | 0.00 | 12 | 1011.4 |
| 20260509184338 | 95 | 268 | 2.6 | 5.2 | 0.00 | 0.00 | 0.00 | 12 | 1011.6 |
| 20260509183835 | 94 | 314 | 0.9 | 1.7 | 0.00 | 0.00 | 0.00 | 13 | 1011.4 |
| 20260509183330 | 94 | 211 | 0.9 | 0.9 | 0.00 | 0.00 | 0.00 | 13 | 1011.4 |
| 20260509182827 | 93 | 124 | 0.9 | 0.9 | 0.00 | 0.00 | 0.00 | 13 | 1011.7 |
| 20260509182324 | 93 | 246 | 0.0 | 0.0 | 0.00 | 0.00 | 0.00 | 14 | 1011.8 |
| 20260509181821 | 93 | 357 | 0.9 | 0.9 | 0.00 | 0.00 | 0.00 | 15 | 1012.0 |
| 20260509181318 | 92 | 324 | 0.9 | 0.9 | 0.00 | 0.00 | 0.00 | 15 | 1012.2 |
| 20260509180815 | 92 | 297 | 2.6 | 1.7 | 0.00 | 0.00 | 0.00 | 15 | 1012.2 |
| 20260509180312 | 92 | 2 | 1.7 | 2.6 | 0.00 | 0.00 | 0.00 | 15 | 1012.1 |
| 20260509175808 | 91 | 25 | 0.0 | 0.0 | 0.00 | 0.00 | 0.00 | 15 | 1012.5 |
| 20260509175306 | 90 | 256 | 0.9 | 0.9 | 0.00 | 0.00 | 0.00 | 16 | 1012.4 |
| 20260509174801 | 91 | 192 | 0.9 | 0.9 | 0.00 | 0.00 | 0.00 | 16 | 1012.2 |
| 20260509174256 | 92 | 203 | 1.7 | 1.7 | 0.00 | 0.00 | 0.00 | 16 | 1012.5 |
| 20260509173752 | 91 | 331 | 0.9 | 0.9 | 0.00 | 0.00 | 0.00 | 16 | 1012.5 |
| 20260509173248 | 90 | 197 | 1.7 | 1.7 | 0.00 | 0.00 | 0.00 | 16 | 1012.5 |
| 20260509172744 | 90 | 168 | 0.0 | 0.9 | 0.00 | 0.00 | 0.00 | 17 | 1012.5 |
| 20260509172241 | 89 | 35 | 0.9 | 0.9 | 0.00 | 0.00 | 0.00 | 17 | 1012.5 |
| 20260509171736 | 89 | 20 | 0.9 | 0.9 | 0.00 | 0.00 | 0.00 | 18 | 1012.6 |
| 20260509171233 | 89 | 245 | 3.5 | 5.2 | 0.00 | 0.00 | 0.00 | 16 | 1012.8 |